カタログに戻る

METEOR 1-5 DEB

運用中PO
NORAD 58399·DEBRIS·🇷🇺 Russia

打ち上げ Jun 23, 1970 から Plesetsk Cosmodrome

Loading…

次のパス (今後24時間)

TLE

最新Source: Space-Track

元期: Sep 13, 2026, 16:58 UTC

1 58399U 70047F   26256.70753504  .00000919  00000-0  50104-3 0  9996
2 58399  81.2223 160.7045 0023384 336.9409  23.0711 14.11299591148482

AllMySatでMETEOR 1-5 DEBをリアルタイム追跡

Download on the App Store